Date String (YYYY-MM-DD hh:mm:ss) UTC,Instrument flags,absolute air pressure of the measurement (hPa),sample flow rate (lpm),inlet stack bypass flow (lpm),air temperature of the measurement (°C),ambient temperature measured by the external sensor (°C),aerosol sample conditioner tube jacket temperature (°C),OPC LED temperature (°C),internal box temperature (°C),relative humidity of the measurement (%),span deviation,mass concentration of particles derived from Lorenz-Mie calculation of OPC scattering (μg/m³),mass concentration of particles derived from Lorenz-Mie calculation of OPC scattering (μg/m³),mass concentration of particles derived from Lorenz-Mie calculation of OPC scattering (μg/m³)
DateTimeUTC,F1_M11,P_M11,Q1_M11,Q2_M11,T1_M11,T2_M11,T3_M11,T4_M11,T5_M11,U1_M11,ZSPAN_M11,X2_M11,X0_M11,X1_M11
2024-03-22 01:00:00,SystemResetWarning,0824.3,5.00,000.00,025.6,025.0,000.0,033.9,027.5,09.2,0000.0,0002.36,0007.54,0001.25
2024-03-22 01:01:00,SystemResetWarning,0824.4,5.00,000.00,025.6,025.0,000.0,033.9,027.5,09.3,0000.0,0002.42,0007.81,0001.26
2024-03-22 01:02:00,SystemResetWarning,0824.3,5.00,000.00,025.7,025.0,000.0,034.0,027.5,09.3,0000.0,0002.40,0007.85,0001.26
2024-03-22 01:03:00,SystemResetWarning,0824.4,5.00,000.00,025.7,025.0,000.0,034.0,027.5,09.3,0000.0,0002.35,0007.96,0001.26
2024-03-22 01:04:00,SystemResetWarning,0824.3,5.00,000.00,025.7,025.0,000.0,034.0,027.6,09.4,0000.0,0002.43,0007.59,0001.26
2024-03-22 01:05:00,SystemResetWarning,0824.3,5.00,000.00,025.7,025.0,000.0,034.0,027.6,09.2,0000.0,0002.43,0007.15,0001.26
2024-03-22 01:06:00,SystemResetWarning,0824.3,5.00,000.00,025.7,025.0,000.0,034.0,027.6,09.1,0000.0,0002.37,0006.58,0001.26
2024-03-22 01:07:00,SystemResetWarning,0824.3,5.00,000.00,025.8,025.1,000.0,034.1,027.6,09.2,0000.0,0002.39,0006.70,0001.25
2024-03-22 01:08:00,SystemResetWarning,0824.4,5.00,000.00,025.8,025.1,000.0,034.1,027.6,09.4,0000.0,0002.42,0006.70,0001.26
2024-03-22 01:09:00,SystemResetWarning,0824.3,5.00,000.00,025.8,025.1,000.0,034.1,027.6,09.5,0000.0,0002.41,0005.73,0001.27
2024-03-22 01:10:00,SystemResetWarning,0824.4,5.00,000.00,025.8,025.1,000.0,034.1,027.7,09.6,0000.0,0002.40,0006.92,0001.27
2024-03-22 01:11:00,SystemResetWarning,0824.4,5.00,000.00,025.8,025.2,000.0,034.2,027.7,09.7,0000.0,0002.39,0006.94,0001.27
2024-03-22 01:12:00,SystemResetWarning,0824.3,5.00,000.00,025.8,025.2,000.0,034.2,027.7,09.8,0000.0,0002.38,0006.76,0001.28
2024-03-22 01:13:00,SystemResetWarning,0824.4,5.00,000.00,025.9,025.2,000.0,034.2,027.7,09.8,0000.0,0002.40,0006.99,0001.27
2024-03-22 01:14:00,SystemResetWarning,0824.4,5.00,000.00,025.9,025.2,000.0,034.2,027.8,10.0,0000.0,0002.45,0006.88,0001.29
2024-03-22 01:15:00,SystemResetWarning,0824.3,5.01,000.00,025.9,025.2,000.0,034.2,027.8,09.8,0000.0,0002.43,0006.59,0001.29
2024-03-22 01:16:00,SystemResetWarning,0824.3,5.01,000.00,025.9,025.3,000.0,034.3,027.8,09.6,0000.0,0002.44,0006.74,0001.29
2024-03-22 01:17:00,SystemResetWarning,0824.3,4.99,000.00,025.9,025.3,000.0,034.3,027.8,09.4,0000.0,0002.50,0007.23,0001.29
2024-03-22 01:18:00,SystemResetWarning,0824.4,4.99,000.00,026.0,025.3,000.0,034.3,027.8,09.4,0000.0,0002.51,0007.35,0001.30
2024-03-22 01:19:00,SystemResetWarning,0824.3,5.00,000.00,026.0,025.3,000.0,034.3,027.8,09.4,0000.0,0002.46,0007.28,0001.31
2024-03-22 01:20:00,SystemResetWarning,0824.4,5.00,000.00,026.0,025.3,000.0,034.3,027.8,09.5,0000.0,0002.50,0007.34,0001.31
2024-03-22 01:21:00,SystemResetWarning,0824.4,5.00,000.00,026.0,025.3,000.0,034.3,027.9,09.5,0000.0,0002.56,0006.58,0001.31
2024-03-22 01:22:00,SystemResetWarning,0824.4,5.00,000.00,026.0,025.3,000.0,034.4,027.9,09.5,0000.0,0002.58,0007.23,0001.33
2024-03-22 01:23:00,SystemResetWarning,0824.4,5.00,000.00,026.0,025.3,000.0,034.4,027.9,09.6,0000.0,0002.58,0007.30,0001.33
2024-03-22 01:24:00,SystemResetWarning,0824.4,5.00,000.00,026.0,025.3,000.0,034.4,027.9,09.6,0000.0,0002.51,0006.78,0001.33
2024-03-22 01:25:00,SystemResetWarning,0824.5,5.00,000.00,026.0,025.4,000.0,034.4,027.9,09.7,0000.0,0002.52,0006.75,0001.33
2024-03-22 01:26:00,SystemResetWarning,0824.5,5.00,000.00,026.1,025.4,000.0,034.4,027.9,09.7,0000.0,0002.54,0006.79,0001.34
2024-03-22 01:27:00,SystemResetWarning,0824.5,5.00,000.00,026.1,025.4,000.0,034.4,027.9,09.7,0000.0,0002.58,0006.83,0001.35
2024-03-22 01:28:00,SystemResetWarning,0824.5,5.00,000.00,026.1,025.4,000.0,034.5,027.9,09.7,0000.0,0002.56,0006.45,0001.34
2024-03-22 01:29:00,SystemResetWarning,0824.5,5.00,000.00,026.1,025.1,000.0,034.5,027.7,09.8,0000.0,0002.53,0006.47,0001.34
2024-03-22 01:30:00,SystemResetWarning,0824.4,4.99,000.00,025.7,022.9,000.0,034.5,026.5,09.9,0000.0,0002.55,0006.57,0001.34
2024-03-22 01:31:00,SystemResetWarning,0824.4,5.02,000.00,025.3,022.0,000.0,034.5,025.9,10.1,0000.0,0002.59,0006.77,0001.36
2024-03-22 01:32:00,SystemResetWarning,0824.4,5.00,000.00,025.1,022.2,000.0,034.3,026.0,10.3,0000.0,0002.59,0007.34,0001.35
2024-03-22 01:33:00,SystemResetWarning,0824.5,5.00,000.00,025.1,022.5,000.0,034.2,026.3,10.4,0000.0,0002.56,0006.98,0001.35
2024-03-22 01:34:00,SystemResetWarning,0824.5,5.00,000.00,025.0,022.9,000.0,034.0,026.4,10.4,0000.0,0002.47,0006.57,0001.35
2024-03-22 01:35:00,SystemResetWarning,0824.6,5.00,000.00,025.0,023.2,000.0,034.0,026.6,10.4,0000.0,0002.57,0007.55,0001.37
2024-03-22 01:36:00,SystemResetWarning,0824.6,4.99,000.00,025.0,023.5,000.0,033.9,026.7,10.5,0000.0,0002.59,0008.07,0001.37
2024-03-22 01:37:00,SystemResetWarning,0824.6,5.00,000.00,025.1,023.7,000.0,033.8,026.8,10.5,0000.0,0002.59,0008.07,0001.36
2024-03-22 01:38:00,SystemResetWarning,0824.6,5.01,000.00,025.1,023.9,000.0,033.8,026.8,10.6,0000.0,0002.55,0007.98,0001.36
2024-03-22 01:39:00,SystemResetWarning,0824.5,5.01,000.00,025.1,024.1,000.0,033.8,026.9,10.7,0000.0,0002.58,0008.02,0001.38
2024-03-22 01:40:00,SystemResetWarning,0824.5,4.99,000.00,025.1,024.2,000.0,033.8,027.0,10.7,0000.0,0002.61,0007.87,0001.41
2024-03-22 01:41:00,SystemResetWarning,0824.6,5.00,000.00,025.2,024.3,000.0,033.8,027.0,10.5,0000.0,0002.56,0008.63,0001.42
2024-03-22 01:42:00,SystemResetWarning,0824.7,5.02,000.00,025.2,024.4,000.0,033.8,027.1,10.7,0000.0,0002.58,0008.70,0001.42
2024-03-22 01:43:00,SystemResetWarning,0824.7,4.99,000.00,025.2,024.5,000.0,033.8,027.1,10.8,0000.0,0002.56,0008.34,0001.42
2024-03-22 01:44:00,SystemResetWarning,0824.7,5.00,000.00,025.3,024.6,000.0,033.8,027.2,10.7,0000.0,0002.57,0008.17,0001.42
2024-03-22 01:45:00,SystemResetWarning,0824.7,4.99,000.00,025.3,024.6,000.0,033.8,027.2,10.8,0000.0,0002.63,0008.31,0001.43
2024-03-22 01:46:00,SystemResetWarning,0824.7,5.00,000.00,025.3,024.7,000.0,033.8,027.2,10.8,0000.0,0002.61,0007.89,0001.42
2024-03-22 01:47:00,SystemResetWarning,0824.7,4.99,000.00,025.4,024.7,000.0,033.8,027.3,10.9,0000.0,0002.59,0007.32,0001.42
2024-03-22 01:48:00,SystemResetWarning,0824.7,4.99,000.00,025.4,024.7,000.0,033.8,027.3,10.8,0000.0,0002.54,0007.21,0001.44
2024-03-22 01:49:00,SystemResetWarning,0824.7,5.00,000.00,025.4,024.8,000.0,033.8,027.3,10.7,0000.0,0002.58,0007.31,0001.45
2024-03-22 01:50:00,SystemResetWarning,0824.7,5.00,000.00,025.4,024.8,000.0,033.8,027.3,11.1,0000.0,0002.57,0007.37,0001.44
2024-03-22 01:51:00,SystemResetWarning,0824.8,5.01,000.00,025.5,024.9,000.0,033.8,027.4,10.8,0000.0,0002.62,0007.41,0001.43
2024-03-22 01:52:00,SystemResetWarning,0824.7,5.00,000.00,025.5,024.9,000.0,033.9,027.4,10.6,0000.0,0002.65,0006.30,0001.42
2024-03-22 01:53:00,SystemResetWarning,0824.8,5.01,000.00,025.5,024.9,000.0,033.9,027.4,10.5,0000.0,0002.58,0005.69,0001.40
2024-03-22 01:54:00,SystemResetWarning,0824.8,5.00,000.00,025.5,024.9,000.0,033.9,027.4,10.6,0000.0,0002.54,0005.76,0001.40
2024-03-22 01:55:00,SystemResetWarning,0824.8,5.00,000.00,025.6,024.9,000.0,033.9,027.5,11.0,0000.0,0002.58,0005.66,0001.38
2024-03-22 01:56:00,SystemResetWarning,0824.9,4.99,000.00,025.6,025.0,000.0,033.9,027.5,10.9,0000.0,0002.60,0005.63,0001.38
2024-03-22 01:57:00,SystemResetWarning,0824.9,4.99,000.00,025.6,025.0,000.0,034.0,027.5,10.6,0000.0,0002.61,0006.65,0001.38
2024-03-22 01:58:00,SystemResetWarning,0824.9,5.00,000.00,025.6,025.0,000.0,034.0,027.5,10.7,0000.0,0002.60,0006.97,0001.37
2024-03-22 01:59:00,SystemResetWarning,0824.8,5.00,000.00,025.6,025.0,000.0,034.0,027.5,10.1,0000.0,0002.55,0007.01,0001.35
